Regional Weather Roundup
Issued by NWS

Home | Current Version | Previous Version | Graphics & Text | Print | Product List | Glossary On
Versions: 1 2 3 4 5 6 7 8 9 10 11 12 13 14 15 16 17 18 19 20 21 22 23 24 25 26 27 28 29 30 31 32 33 34 35 36 37 38 39 40 41 42 43 44 45 46 47 48 49 50
000
ASUS43 KFSD 260602
RWRSD

WEATHER ROUNDUP FOR SOUTH DAKOTA
NATIONAL WEATHER SERVICE SIOUX FALLS SD
100 AM CDT THU APR 26 2018

NOTE: "FAIR" INDICATES FEW OR NO CLOUDS BELOW 12,000 FEET WITH NO
SIGNIFICANT WEATHER AND/OR OBSTRUCTIONS TO VISIBILITY.


SDZ001>005-009-010-012>017-260700-
NORTHWEST AND NORTH CENTRAL SOUTH DAKOTA

CITY           SKY/WX    TMP DP  RH WIND       PRES   REMARKS
BUFFALO          N/A     50  29  44 N18       29.95R
FAITH            N/A     54  35  48 NW22G30   29.92R
MOBRIDGE       MOCLDY    52  35  52 NW9       29.82R
$$

SDZ012>016-024>037-041>051-057-063-072>074-260700-
SOUTHWEST AND SOUTH CENTRAL SOUTH DAKOTA

CITY           SKY/WX    TMP DP  RH WIND       PRES   REMARKS
RAPID CTY ARPT CLOUDY    55  30  38 N25G31    29.97R
PIERRE         CLOUDY    49  32  52 SW6       29.84R
CUSTER         CLOUDY    49  21  33 N13G26    30.01R
ELLSWORTH AFB  CLOUDY    55  31  40 N22       29.97R
PHILIP         CLOUDY    54  33  45 N13       29.89R
PINE RIDGE     CLOUDY    57  27  31 N15       29.94R
SPEARFISH      FAIR      48  32  53 W12G20    30.06R
WINNER         FAIR      53  30  41 S16       29.87R
$$

SDZ004>011-016>023-039-040-260700-
NORTHEAST SOUTH DAKOTA

CITY           SKY/WX    TMP DP  RH WIND       PRES   REMARKS
ABERDEEN       MOCLDY    46  37  71 S9        29.83S
WATERTOWN      CLOUDY    40  34  79 S10       29.86F
BROOKINGS      CLOUDY    45  33  63 S12       29.90F
SISSETON         N/A     54  32  43 S20G30    29.80F
$$

SDZ017-020-022-023-036>040-048>070-260700-
SOUTHEAST SOUTH DAKOTA

CITY           SKY/WX    TMP DP  RH WIND       PRES   REMARKS
SIOUX FALLS    CLOUDY    48  30  49 SW7       29.92F
HURON          CLOUDY    48  35  60 S12       29.86F
CHAMBERLAIN    CLOUDY    50  34  53 SW7       29.88R
MITCHELL       CLOUDY    49  35  58 S10       29.90F
YANKTON        PTCLDY    47  32  56 S5        29.95F
$$

ABBREVIATIONS USED IN REMARKS
   TC - TEMPERATURE IN CELSIUS
  WCI - WIND CHILL INDEX
   HX - HEAT INDEX
  VSB - VISIBILITY





USA.gov is the U.S. government's official web portal to all federal, state and local government web resources and services.